COSMOS 252 DEB, 18556

Orbit data source: Space-Track

COSMOS 252 DEB, 18556 is space debris in LEO originally from a launch on Fri, 01 Nov 1968 UTC launched from the Tyuratam Missile And Space Complex (TTMTR). Debris objects in space refer to the collection of defunct objects orbiting the Earth. Examples of debris include non-operational satellites, rocket bodies, and fragments generated from explosions, collisions, or faulty payload assembly.

Loading next visibility...
Identifier
18556, 1968-097EP
Orbit
LEO
Country
Flag of CISCIS
Related business
Manufacturer
Unknown
Mission
Spacecraft
Bus & Motor
Unknown
Mass
Unknown
Launch date (UTC)
1968-11-01 (57 years ago)
Launch vehicle
Unknown
Launch site
Tyuratam Missile And Space Complex (TTMTR)
Object type
Payload
Rocket body
Debris
Shape & HBR
Unknown shape, 0.1 m
Radar Cross Section
Small (<0.1 m²)

Expand to show TLE details & history
Last TLE update: 15 hours ago

TLE from 15 hours ago
0 COSMOS 252 DEB
1 18556U 68097EP  26036.21461861  .00005132  00000-0  26876-2 0  9993
2 18556  62.1942 328.6456 0403984 225.1108 131.6467 13.80523484479581
Epoch: 2026-02-05T05:09Z
TLE epoch observation values (Epoch: 2026-02-05T05:09:03.047Z)
Latitude
-0.0001°
Longitude
116.0128°
Altitude
1,167.213 km
Speed
7.169 km/s
True Right ascension
21h 54m 34s
True Declination
0° 00' 00"
Sunlit
Object was in daylight at epoch
Visualization orbit readout
Latitude
Unknown
Longitude
Unknown
Altitude
Unknown
Speed
Unknown
Apparent Right ascension
Unknown
Apparent Declination
Unknown
Sunlit
N/A
Visualization observer readout
Local Sidereal Time
22:11:40
Azimuth
Unknown
Elevation
Unknown
Doppler factor
Unknown
Orbital elements
Apogee altitude
1,257.48 km
Perigee altitude
664.502 km
Semi-major axis
7,339.128 km
Eccentricity
0.0404
Inclination
62.1942°
RAAN
328.6456°
Arg. of periapsis
225.1108°
True anomaly
134.99164°
Mean anomaly
131.6467°
Eccentric anomaly
133.3304°
Mean motion
3.45205 °/min
Orbital period
104.29 mins
BSTAR
0.0026876
Loading maneuver chart data...
Computing Atmospheric mass density...
Loading historical data...
Loading historical data...
Loading historical data...
Loading historical data...
Loading historical data...
Loading historical data...
Loading historical data...

Documentation

Showing up to 5 results
|